[Iaude] MPEC Q52: 2020 PO5 [a=2.15,e=0.41,i=7.0,H=24.1]

mpec at marsden.cfa.harvard.edu mpec at marsden.cfa.harvard.edu
Mon Aug 17 12:13:38 EDT 2020


M.P.E.C. 2020-Q52                               Issued 2020 August 17, 16:12 UT

     The Minor Planet Electronic Circulars contain information on unusual
         minor planets and routine data on comets.  They are published
    on behalf of Division F of the International Astronomical Union by the
          Minor Planet Center, Smithsonian Astrophysical Observatory,
                          Cambridge, MA 02138, U.S.A.

             Prepared using the Tamkin Foundation Computer Network

                              MPC at CFA.HARVARD.EDU
            URL https://www.minorplanetcenter.net/    ISSN 1523-6714

                                    2020 PO5                                    


Observations:
     K20P05O* C2020 08 14.45446922 30 35.552-25 43 42.61         22.16wUEQ052F51
     K20P05O  C2020 08 14.46593122 30 35.534-25 43 22.07         22.46wUEQ052F51
     K20P05O  C2020 08 14.47737822 30 35.463-25 43 01.19         22.48wUEQ052F51
     K20P05O ^C2020 08 15.43039022 30 45.529-25 14 07.19         21.85GVEQ052568
     K20P05O ^C2020 08 15.43274722 30 45.516-25 14 02.96         21.84GVEQ052568
     K20P05O ^C2020 08 15.43392522 30 45.510-25 14 00.84         21.79GVEQ052568
     K20P05O  C2020 08 16.47622122 30 53.217-24 42 06.54         22.58GVEQ052F51
     K20P05O  C2020 08 16.48786022 30 53.140-24 41 45.10         22.19GVEQ052F51
     K20P05O  C2020 08 16.49948422 30 53.046-24 41 23.30         22.06GVEQ052F51
     K20P05O  C2020 08 16.51110322 30 52.964-24 41 01.71         22.29GVEQ052F51
     K20P05O KC2020 08 17.58164422 30 59.82 -24 07 20.6          22.3 GVEQ052474
     K20P05O KC2020 08 17.58868022 30 59.80 -24 07 08.2          22.3 GVEQ052474
     K20P05O KC2020 08 17.59571722 30 59.74 -24 06 54.0          22.1 GVEQ052474

Observer details:
474 Mount John Observatory, Lake Tekapo.  Observers A. C. Gilmore, P. M.
    Kilmartin.  Measurer P. M. Kilmartin.  1.0-m f/7.7 reflector + CCD.
568 Mauna Kea.  Observers R. Wainscoat, C. Wipper, T. Burdullis.  Measurers R.
    Weryk, R. Wainscoat.  3.6-m Canada-France-Hawaii Telescope + CCD.
F51 Pan-STARRS 1, Haleakala.  Observers J. Bulger, T. Lowe, A. Schultz, M.
    Willman, K. Chambers.  Measurers K. Chambers, S. Chastel, T. de Boer, L.
    Denneau, J. Fairlamb, H. Flewelling, M. Huber, C.-C. Lin, E. Magnier, Y.
    Ramanjooloo, R. Wainscoat, R. Weryk.  1.8-m Ritchey-Chretien + CCD.

Orbital elements:
2020 PO5                                                 Earth MOID = 0.2562 AU
Epoch 2020 Aug. 16.0 TT = JDT 2459077.5                 Bell                    
M   3.04076              (2000.0)            P               Q                  
n   0.31348348     Peri.  327.02053     +0.72570201     +0.68765044             
a   2.1461477      Node   349.44549     -0.60206414     +0.61909086             
e   0.4130135      Incl.    6.96577     -0.33297953     +0.37929327             
P   3.14           H   24.11          G   0.15           U   9                  
Residuals in seconds of arc
200814 F51  0.1-  0.0+    200815 568  0.0+  0.0-    200817 474  0.4-  0.1+
200814 F51  0.2+  0.1-    200816 F51  0.1-  0.0+    200817 474  0.1-  0.7-
200814 F51  0.1-  0.1+    200816 F51  0.1+  0.1-    200817 474  0.4-  0.3+
200815 568  0.0+  0.0+    200816 F51  0.0+  0.1+
200815 568  0.0+  0.0-    200816 F51  0.0+  0.0+

Ephemeris:
2020 PO5                 a,e,i = 2.15, 0.41, 7                   q = 1.2598
Date    TT    R. A. (2000) Decl.     Delta      r    Elong.  Phase     V
2020 07 18    22 08 00.0 -36 16 49   0.2966  1.2740   146.4    26.2    23.2
...
2020 08 02    22 25 06.2 -31 24 49   0.2665  1.2605   154.4    20.4    22.8
...
2020 08 10    22 29 24.7 -27 53 53   0.2595  1.2603   159.7    16.2    22.6
...
2020 08 16    22 30 49.8 -24 56 21   0.2587  1.2634   164.1    12.7    22.4
2020 08 17    22 30 56.8 -24 25 35   0.2589  1.2642   164.8    12.1    22.4
2020 08 18    22 31 02.2 -23 54 33   0.2593  1.2650   165.5    11.6    22.4
...
2020 08 24    22 31 08.5 -20 44 41   0.2643  1.2717   169.4     8.4    22.3
...
2020 09 01    22 30 50.3 -16 31 12   0.2780  1.2847   171.4     6.8    22.4
...
2020 09 16    22 31 56.6 -09 23 55   0.3264  1.3208   162.8    13.0    23.0

M. P. C. Staff               (C) Copyright 2020 MPC           M.P.E.C. 2020-Q52




More information about the Iaude mailing list